Location: Oulou
(10.7667°N, 12.5167°W)
Time: 13:33:16
(UTC+00:00)

LightSail 2 - Visible Passes

Search period start: 22 November 2019 00:00
Search period end: 02 December 2019 00:00
Orbit: 698 x 729 km, 24.0° (Epoch: 21 November)

Date Brightness Start Highest point End Pass type
(mag) Time Alt. Az. Time Alt. Az. Time Alt. Az.
22 Nov 5.3 05:08:52 53° N 05:09:30 57° NNE 05:14:37 10° E visible
22 Nov 6.4 19:17:18 10° SSW 19:21:41 29° SSE 19:24:32 17° ESE visible
22 Nov 7.5 21:02:03 10° WSW 21:03:31 19° WSW 21:03:31 19° WSW visible
23 Nov 7.4 04:14:37 20° E 04:14:37 20° E 04:16:24 10° E visible
23 Nov 5.4 05:53:36 20° W 05:57:07 60° SSW 06:02:15 10° SE visible
23 Nov 5.0 20:04:08 10° WSW 20:09:13 75° SSE 20:09:16 75° SSE visible
24 Nov 5.0 04:59:21 83° SSE 04:59:21 83° SSE 05:04:23 10° ESE visible
24 Nov 5.6 19:06:20 10° SW 19:11:19 52° SSE 19:15:01 17° E visible
24 Nov 7.2 20:51:58 10° W 20:54:00 23° W 20:54:00 23° W visible
25 Nov 7.7 04:05:05 18° ESE 04:05:05 18° ESE 04:06:23 10° ESE visible
25 Nov 6.2 05:44:04 21° WSW 05:46:44 33° SSW 05:51:23 10° SE visible
25 Nov 5.2 19:53:49 10° WSW 19:58:53 64° NNW 19:59:44 54° NNE visible
26 Nov 6.0 04:49:48 42° S 04:49:48 42° S 04:53:46 10° SE visible
26 Nov 5.1 18:55:47 10° WSW 19:00:56 89° NNW 19:05:26 13° ENE visible
26 Nov 7.1 20:42:09 10° WNW 20:44:25 22° WNW 20:44:25 22° WNW visible
27 Nov 8.0 03:55:31 13° ESE 03:55:31 13° ESE 03:55:59 10° ESE visible
27 Nov 6.9 05:34:29 16° SW 05:36:21 19° SSW 05:39:56 10° SSE visible
27 Nov 5.9 19:43:48 10° W 19:48:35 40° NNW 19:50:06 32° NNE visible
28 Nov 7.0 04:40:11 22° S 04:40:11 22° S 04:42:42 10° SSE visible
28 Nov 5.6 18:45:33 10° W 18:50:35 53° NNW 18:55:34 10° ENE visible
28 Nov 7.1 20:32:29 10° WNW 20:34:45 19° NW 20:34:45 19° NW visible
29 Nov 6.5 19:34:01 10° WNW 19:38:23 27° NNW 19:40:24 21° NNE visible
30 Nov 7.8 04:30:26 11° S 04:30:26 11° S 04:30:52 10° S visible
30 Nov 7.2 20:22:50 10° NW 20:25:01 17° NNW 20:25:01 17° NNW visible
01 Dec 6.8 19:24:21 10° WNW 19:28:15 21° N 19:30:39 16° NNE visible
